www.pogodaiklimat.ru
Время
(UTC), дата
22:53 12.12
23:53 12.12
00:53 12.12
01:53 12.12
02:53 12.12
03:53 12.12
04:53 12.12
05:53 13.12
06:53 13.12
07:53 13.12
08:53 13.12
09:53 13.12
10:53 13.12
11:53 13.12
12:53 13.12
13:53 13.12
14:53 13.12
16:53 13.12
17:53 13.12
18:53 13.12
19:53 13.12
20:53 13.12
21:53 13.12
22:53 13.12
23:53 13.12
00:53 13.12
01:53 13.12
02:53 13.12
03:53 13.12
04:53 13.12
05:53 14.12
06:53 14.12
07:53 14.12
08:53 14.12
09:53 14.12
10:53 14.12
11:53 14.12
12:53 14.12
13:53 14.12
14:53 14.12
15:40 14.12
15:53 14.12
16:06 14.12
16:53 14.12
17:53 14.12
18:53 14.12
19:32 14.12
19:53 14.12
Ветер
(напр.,м/с)
Видим. Явления Облачность Т
(С)
Тd
(С)
f
(%)
Тe
(С)
Тes
(С)
Комфортность P
(гПа)
Po
(гПа)
Тmin
(С)
Tmax
(С)
R
(мм)
R24
(мм)
S
(см)
ЮВ 4 16 км 10/2 1350 м
[верхняя]
+10.0 -1.7 44 +8 +8 1017.7 992.9 +10.0 +13.9
Ю 4 16 км 10/2 1350 м
[верхняя]
+10.0 -1.7 44 +7 +7 1017.8 992.9
Ю 5 16 км 10/10 1500 м +10.0 -1.1 46 +7 +7 1018.0 993.2
Ю 5 16 км 10/5 1500 м
[верхняя]
+10.0 -0.6 48 +7 +7 1017.5 992.9
Ю 4 16 км 10/0 4800 м
[средняя]
+9.4 -0.6 50 +7 +7 1017.3 992.5
Ю 4 16 км 10/0 4500 м
[средняя]
+9.4 -0.6 50 +7 +7 1017.2 992.5
Ю 6 16 км 10/0 3900 м
[средняя]
+8.9 -0.6 51 +5 +5 1016.2 991.6 +8.9 +10.0
Ю 5 16 км 10/0 4200 м
[средняя]
+8.3 -0.6 53 +5 +5 1015.6 991.2
Ю 4 16 км 10/0 3900 м
[средняя]
+8.3 -0.6 53 +6 +6 1015.1 990.6
Ю 3 16 км 10/0 3300 м
[средняя]
+7.8 -0.6 55 +5 +5 1014.5 989.9
Ю 3 16 км 10/0 4500 м
[средняя]
+7.8 0.0 58 +5 +5 1014.1 989.6
В 2 16 км 10/0 3300 м
[средняя]
+6.1 +0.6 68 +4 +4 1013.6 988.9
Ю 3 16 км 10/0 3900 м
[средняя]
+6.7 0.0 62 +4 +4 1013.4 988.9 +5.6 +8.9
0 16 км 10/0 3900 м
[средняя]
+6.7 0.0 62 +6 +6 1013.3 988.9
ЮВ 1 16 км 10/0 3600 м
[средняя]
+6.7 0.0 62 +5 +5 1013.3 988.9
Ю 3 16 км 8/0 3600 м
[средняя верхняя]
+7.8 0.0 58 +5 +5 1013.5 988.9
ЮВ 3 16 км 8/0 3600 м
[средняя верхняя]
+8.3 +0.6 58 +6 +6 1013.1 988.6
ЮВ 2 16 км 8/0 4800 м
[средняя]
+11.1 +2.8 57 +10 +12 1011.8 987.3 +6.1 +11.1
0 16 км 5/0 4800 м
[средняя]
+12.8 +3.9 55 +13 +18 1010.8 986.3
нст 3 16 км 2/0 4800 м
[средняя]
+13.3 +5.0 57 +12 +16 1009.6 985.3
Ю 4 16 км 2/0 4800 м
[средняя]
+13.9 +5.0 55 +13 +15 1008.9 984.6
Ю 3 16 км 2/0 7500 м
[верхняя]
+13.9 +5.0 55 +13 +15 1008.9 984.6
Ю 1 16 км 2/0 5400 м
[средняя верхняя]
+12.8 +5.0 59 +13 +13 1009.2 984.6
Ю 1 16 км 8/0 6000 м
[средняя]
+11.7 +5.0 63 +11 +11 1009.7 985.3 +11.1 +14.4
Ю 3 16 км 8/0 4800 м
[средняя]
+10.6 +5.0 68 +8 +8 1009.7 985.3
Ю 1 16 км 8/0 5400 м
[средняя]
+8.9 +4.4 73 +8 +8 1010.3 985.6
Ю 3 16 км 8/0 4800 м
[средняя]
+10.0 +5.0 71 +8 +8 1010.4 985.9
Ю 3 16 км 10/0 4500 м
[средняя]
+9.4 +5.0 74 +7 +7 1009.7 985.3
Ю 3 16 км 8/0 4500 м
[средняя]
+9.4 +5.0 74 +7 +7 1009.7 985.3
З 3 16 км 8/0 4200 м
[средняя]
+10.6 +4.4 65 +9 +9 1009.5 985.3 +8.3 +12.2
СЗ 4 16 км 10/0 3300 м
[средняя]
+10.0 +3.3 63 +8 +8 1009.4 984.9
С 7
{9}
16 км 5/0 3600 м
[средняя]
+8.9 +1.7 61 +5 +5 1009.8 985.3
С 4
{9}
16 км 2/0 3900 м
[средняя]
+6.7 +0.6 65 +3 +3 1010.6 986.3
СЗ 4 16 км 2/0 7500 м
[верхняя]
+4.4 0.0 73 -0 -0 1010.9 986.3
С 5 16 км 8/0 7200 м
[верхняя]
+3.9 0.0 76 -2 -2 1011.1 986.6
С 4 16 км 8/0 6900 м
[верхняя]
+2.2 -0.6 82 -3 -3 1011.5 986.9 +2.2 +10.6
СЗ 3 16 км 10/0 6600 м
[верхняя]
+2.2 -0.6 82 -2 -2 1012.3 987.6
С 3 13 км 10/0 4800 м
[средняя]
+2.8 0.0 82 -2 -2 1013.2 988.6
С 4 16 км 8/0 4800 м
[средняя верхняя]
+3.9 0.0 76 -1 -0 1013.6 988.9
С 5 11 км 8/2 360 м
[средняя]
+3.9 0.0 76 -2 -1 1014.1 989.6
С 5 10 км мгла 10/8 420 м
[средняя]
+3.9 0.0 76 -2 -1 989.9
С 5 10 км мгла 10/5 420 м
[средняя]
+3.3 0.0 79 -2 -2 1014.5 989.9
С 6 10 км мгла 10/8 420 м
[средняя]
+3.9 0.0 76 -2 -2 989.6
С 6 10 км мгла 10/5 420 м
[средняя]
+4.4 0.0 73 -1 -1 1014.2 989.6 +1.7 +5.0
СВ 4 10 км мгла 8/2 480 м
[средняя]
+4.4 0.0 73 -0 +1 1012.9 988.2
С 4 6 км мгла 10/2 480 м
[средняя]
+4.4 -0.6 70 0 +1 1013.1 988.6
С 3 6 км мгла 10/8 510 м
[средняя]
+3.9 -0.6 72 -0 0 988.6
СВ 4 6 км мгла 10/8 510 м
[средняя]
+4.4 -0.6 70 0 0 1012.9 988.2
Местоположение метеостанции Tulsa International Airport: широта 36.1975 долгота -95.8864 высота над уровнем моря 206 м.
В архиве по умолчанию представлена погода в Тулсе за последние 1-2 суток. Обновление информации о фактической погоде в базе происходит ежечасно! Архивные данные за месяц целиком и за предыдущие месяцы Вы можете получить, выбрав интересующий диапазон дат из раскрывающегося списка и нажав кнопку "Ввод!".
Внимание! Архив погоды МЕТАР в базе сайта по станциям, не включенным в климатический монитор, хранится не более 60 дней. Нет смысла пытаться выбрать более раннюю дату.
*Определитесь, кто Вы:
Внимание! Время в таблицах - всемирное. Для получения местного времени необходимо прибавить поправку, которая равна ч.
Смотрите также архив погоды в соседних городах и на ближайших метеорологических станциях:
Партнеры нашего сайта:      
Пояснения к столбцам:
  • Ветер - указаны скорость ветра в м/с - средняя за 10 мин, порывы в срок и между сроками (в фигурных скобках) и направление, откуда дует ветер: С - северный,
  • СВ - северо-восточный, В - восточный, ЮВ - юго-восточный, Ю - южный, ЮЗ - юго-западный, З - западный, СЗ - северо-западный.
  • Видимость - горизонтальная дальность видимости в метрах или километрах. При видимости от 1 до 10 км при отсутствии осадков обычно наблюдается дымка, при ухудшении видимости до 1 км и менее - туман. В сухую погоду видимость может ухудшаться дымом, пылью или мглою.
  • Явления - указаны атмосферные явления, наблюдавшиеся в срок или в последний час перед сроком; фигурными скобками обозначены явления, наблюдавшиеся между сроками (за 1-3 часа до срока); квадратными скобками обозначены град или гололедные отложения с указанием их диаметра в мм.
  • Облачность - указаны через наклонную черту общая и нижняя облачность в баллах и высота нижней границы облаков в метрах; квадратными скобками обозначены формы облаков: Ci - перистые, Cs - перисто-слоистые, Cc - перисто-кучевые, Ac - высококучевые, As - высокослоистые, Sc - слоисто-кучевые, Ns - слоисто-дождевые, Cu - кучевые, Cb - кучево-дождевые. Подробнее классификацию облаков см. в Атласе облаков (PDF).
  • T - Температура воздуха - температура, измеренная на высоте 2 м над землей.
  • Td - Температура точки росы - температура, при понижении до которой содержащийся в воздухе водяной пар достигнет насыщения.
  • f - Относительная влажность воздуха - влажноcть воздуха, измеренная на высоте 2 м над землей.
  • Te - Эффективная температура - температура, которую ощущает одетый по сезону человек в тени. Характеристика душности погоды. При расчете учитывается влияние влажности воздуха и скорости ветра на теплоощущения человека.
  • Tes - Эффективная температура на солнце - температура, которую ощущает человек, с поправкой на солнечный нагрев. Характеристика знойности погоды. Зависит от высоты солнца над горизонтом, облачности и скорости ветра. Ночью, в пасмурную погоду, а также при ветре 12 м/с и более поправка равна нулю.
  • P - Атмосферное давление - приведенное к уровню моря атмосферное давление.
  • Po - Атмосферное давление - измеренное на уровне метеостанции атмосферное давление.
  • Tmin - Минимальная температура - минимум температуры воздуха на высоте 2 м над землей.
  • Tmax - Максимальная температура - максимум температуры воздуха на высоте 2 м над землей.
  • R - Количество осадков - Количество выпавших осадков за период времени, мм. При наведении курсора мыши на число - период времени, за который выпало указанное количество осадков.
  • R24 - Количество осадков - Количество выпавших осадков за 24 часа, мм.
  • S - Снежный покров - Высота снежного покрова, см. При наведении курсора мыши на число - состояние снежного покрова и степень покрытия местности в баллах.